Year,Month,Day,Hour,Minute,Value (Times are PST for insolation in W/m^2)
2009,11,03,00,00,0.00
2009,11,03,00,01,0.00
2009,11,03,00,02,0.00
2009,11,03,00,03,0.00
2009,11,03,00,04,0.00
2009,11,03,00,05,0.00
2009,11,03,00,06,0.00
2009,11,03,00,07,0.00
2009,11,03,00,08,0.00
2009,11,03,00,09,0.00
2009,11,03,00,10,0.00
2009,11,03,00,11,0.00
2009,11,03,00,12,0.00
2009,11,03,00,13,0.00
2009,11,03,00,14,0.00
2009,11,03,00,15,0.00
2009,11,03,00,16,0.00
2009,11,03,00,17,0.00
2009,11,03,00,18,0.00
2009,11,03,00,19,0.00
2009,11,03,00,20,0.00
2009,11,03,00,21,0.00
2009,11,03,00,22,0.00
2009,11,03,00,23,0.00
2009,11,03,00,24,0.00
2009,11,03,00,25,0.00
2009,11,03,00,26,0.00
2009,11,03,00,27,0.00
2009,11,03,00,28,0.00
2009,11,03,00,29,0.00
2009,11,03,00,30,0.00
2009,11,03,00,31,0.00
2009,11,03,00,32,0.00
2009,11,03,00,33,0.00
2009,11,03,00,34,0.00
2009,11,03,00,35,0.00
2009,11,03,00,36,0.00
2009,11,03,00,37,0.00
2009,11,03,00,38,0.00
2009,11,03,00,39,0.00
2009,11,03,00,40,0.00
2009,11,03,00,41,0.00
2009,11,03,00,42,0.00
2009,11,03,00,43,0.00
2009,11,03,00,44,0.00
2009,11,03,00,45,0.00
2009,11,03,00,46,0.00
2009,11,03,00,47,0.00
2009,11,03,00,48,0.00
2009,11,03,00,49,0.00
2009,11,03,00,50,0.00
2009,11,03,00,51,0.00
2009,11,03,00,52,0.00
2009,11,03,00,53,0.00
2009,11,03,00,54,0.00
2009,11,03,00,55,0.00
2009,11,03,00,56,0.00
2009,11,03,00,57,0.00
2009,11,03,00,58,0.00
2009,11,03,00,59,0.00
2009,11,03,01,00,0.00
2009,11,03,01,01,0.00
2009,11,03,01,02,0.00
2009,11,03,01,03,0.00
2009,11,03,01,04,0.00
2009,11,03,01,05,0.00
2009,11,03,01,06,0.00
2009,11,03,01,07,0.00
2009,11,03,01,08,0.00
2009,11,03,01,09,0.00
2009,11,03,01,10,0.00
2009,11,03,01,11,0.00
2009,11,03,01,12,0.00
2009,11,03,01,13,0.00
2009,11,03,01,14,0.00
2009,11,03,01,15,0.00
2009,11,03,01,16,0.00
2009,11,03,01,17,0.00
2009,11,03,01,18,0.00
2009,11,03,01,19,0.00
2009,11,03,01,20,0.00
2009,11,03,01,21,0.00
2009,11,03,01,22,0.00
2009,11,03,01,23,0.00
2009,11,03,01,24,0.00
2009,11,03,01,25,0.00
2009,11,03,01,26,0.00
2009,11,03,01,27,0.00
2009,11,03,01,28,0.00
2009,11,03,01,29,0.00
2009,11,03,01,30,0.00
2009,11,03,01,31,0.00
2009,11,03,01,32,0.00
2009,11,03,01,33,0.00
2009,11,03,01,34,0.00
2009,11,03,01,35,0.00
2009,11,03,01,36,0.00
2009,11,03,01,37,0.00
2009,11,03,01,38,0.00
2009,11,03,01,39,0.00
2009,11,03,01,40,0.00
2009,11,03,01,41,0.00
2009,11,03,01,42,0.00
2009,11,03,01,43,0.00
2009,11,03,01,44,0.00
2009,11,03,01,45,0.00
2009,11,03,01,46,0.00
2009,11,03,01,47,0.00
2009,11,03,01,48,0.00
2009,11,03,01,49,0.00
2009,11,03,01,50,0.00
2009,11,03,01,51,0.00
2009,11,03,01,52,0.00
2009,11,03,01,53,0.00
2009,11,03,01,54,0.00
2009,11,03,01,55,0.00
2009,11,03,01,56,0.00
2009,11,03,01,57,0.00
2009,11,03,01,58,0.00
2009,11,03,01,59,0.00
2009,11,03,02,00,0.00
2009,11,03,02,01,0.00
2009,11,03,02,02,0.00
2009,11,03,02,03,0.00
2009,11,03,02,04,0.00
2009,11,03,02,05,0.00
2009,11,03,02,06,0.00
2009,11,03,02,07,0.00
2009,11,03,02,08,0.00
2009,11,03,02,09,0.00
2009,11,03,02,10,0.00
2009,11,03,02,11,0.00
2009,11,03,02,12,0.00
2009,11,03,02,13,0.00
2009,11,03,02,14,0.00
2009,11,03,02,15,0.00
2009,11,03,02,16,0.00
2009,11,03,02,17,0.00
2009,11,03,02,18,0.00
2009,11,03,02,19,0.00
2009,11,03,02,20,0.00
2009,11,03,02,21,0.00
2009,11,03,02,22,0.00
2009,11,03,02,23,0.00
2009,11,03,02,24,0.00
2009,11,03,02,25,0.00
2009,11,03,02,26,0.00
2009,11,03,02,27,0.00
2009,11,03,02,28,0.00
2009,11,03,02,29,0.00
2009,11,03,02,30,0.00
2009,11,03,02,31,0.00
2009,11,03,02,32,0.00
2009,11,03,02,33,0.00
2009,11,03,02,34,0.00
2009,11,03,02,35,0.00
2009,11,03,02,36,0.00
2009,11,03,02,37,0.00
2009,11,03,02,38,0.00
2009,11,03,02,39,0.00
2009,11,03,02,40,0.00
2009,11,03,02,41,0.00
2009,11,03,02,42,0.00
2009,11,03,02,43,0.00
2009,11,03,02,44,0.00
2009,11,03,02,45,0.00
2009,11,03,02,46,0.00
2009,11,03,02,47,0.00
2009,11,03,02,48,0.00
2009,11,03,02,49,0.00
2009,11,03,02,50,0.00
2009,11,03,02,51,0.00
2009,11,03,02,52,0.00
2009,11,03,02,53,0.00
2009,11,03,02,54,0.00
2009,11,03,02,55,0.00
2009,11,03,02,56,0.00
2009,11,03,02,57,0.00
2009,11,03,02,58,0.00
2009,11,03,02,59,0.00
2009,11,03,03,00,0.00
2009,11,03,03,01,0.00
2009,11,03,03,02,0.00
2009,11,03,03,03,0.00
2009,11,03,03,04,0.00
2009,11,03,03,05,0.00
2009,11,03,03,06,0.00
2009,11,03,03,07,0.00
2009,11,03,03,08,0.00
2009,11,03,03,09,0.00
2009,11,03,03,10,0.00
2009,11,03,03,11,0.00
2009,11,03,03,12,0.00
2009,11,03,03,13,0.00
2009,11,03,03,14,0.00
2009,11,03,03,15,0.00
2009,11,03,03,16,0.00
2009,11,03,03,17,0.00
2009,11,03,03,18,0.00
2009,11,03,03,19,0.00
2009,11,03,03,20,0.00
2009,11,03,03,21,0.00
2009,11,03,03,22,0.00
2009,11,03,03,23,0.00
2009,11,03,03,24,0.00
2009,11,03,03,25,0.00
2009,11,03,03,26,0.00
2009,11,03,03,27,0.00
2009,11,03,03,28,0.00
2009,11,03,03,29,0.00
2009,11,03,03,30,0.00
2009,11,03,03,31,0.00
2009,11,03,03,32,0.00
2009,11,03,03,33,0.00
2009,11,03,03,34,0.00
2009,11,03,03,35,0.00
2009,11,03,03,36,0.00
2009,11,03,03,37,0.00
2009,11,03,03,38,0.00
2009,11,03,03,39,0.00
2009,11,03,03,40,0.00
2009,11,03,03,41,0.00
2009,11,03,03,42,0.00
2009,11,03,03,43,0.00
2009,11,03,03,44,0.00
2009,11,03,03,45,0.00
2009,11,03,03,46,0.00
2009,11,03,03,47,0.00
2009,11,03,03,48,0.00
2009,11,03,03,49,0.00
2009,11,03,03,50,0.00
2009,11,03,03,51,0.00
2009,11,03,03,52,0.00
2009,11,03,03,53,0.00
2009,11,03,03,54,0.00
2009,11,03,03,55,0.00
2009,11,03,03,56,0.00
2009,11,03,03,57,0.00
2009,11,03,03,58,0.00
2009,11,03,03,59,0.00
2009,11,03,04,00,0.00
2009,11,03,04,01,0.00
2009,11,03,04,02,0.00
2009,11,03,04,03,0.00
2009,11,03,04,04,0.00
2009,11,03,04,05,0.00
2009,11,03,04,06,0.00
2009,11,03,04,07,0.00
2009,11,03,04,08,0.00
2009,11,03,04,09,0.00
2009,11,03,04,10,0.00
2009,11,03,04,11,0.00
2009,11,03,04,12,0.00
2009,11,03,04,13,0.00
2009,11,03,04,14,0.00
2009,11,03,04,15,0.00
2009,11,03,04,16,0.00
2009,11,03,04,17,0.00
2009,11,03,04,18,0.00
2009,11,03,04,19,0.00
2009,11,03,04,20,0.00
2009,11,03,04,21,0.00
2009,11,03,04,22,0.00
2009,11,03,04,23,0.00
2009,11,03,04,24,0.00
2009,11,03,04,25,0.00
2009,11,03,04,26,0.00
2009,11,03,04,27,0.00
2009,11,03,04,28,0.00
2009,11,03,04,29,0.00
2009,11,03,04,30,0.00
2009,11,03,04,31,0.00
2009,11,03,04,32,0.00
2009,11,03,04,33,0.00
2009,11,03,04,34,0.00
2009,11,03,04,35,0.00
2009,11,03,04,36,0.00
2009,11,03,04,37,0.00
2009,11,03,04,38,0.00
2009,11,03,04,39,0.00
2009,11,03,04,40,0.00
2009,11,03,04,41,0.00
2009,11,03,04,42,0.00
2009,11,03,04,43,0.00
2009,11,03,04,44,0.00
2009,11,03,04,45,0.00
2009,11,03,04,46,0.00
2009,11,03,04,47,0.00
2009,11,03,04,48,0.00
2009,11,03,04,49,0.00
2009,11,03,04,50,0.00
2009,11,03,04,51,0.00
2009,11,03,04,52,0.00
2009,11,03,04,53,0.00
2009,11,03,04,54,0.00
2009,11,03,04,55,0.00
2009,11,03,04,56,0.00
2009,11,03,04,57,0.00
2009,11,03,04,58,0.00
2009,11,03,04,59,0.00
2009,11,03,05,00,0.00
2009,11,03,05,01,0.00
2009,11,03,05,02,0.00
2009,11,03,05,03,0.00
2009,11,03,05,04,0.00
2009,11,03,05,05,0.00
2009,11,03,05,06,0.00
2009,11,03,05,07,0.00
2009,11,03,05,08,0.00
2009,11,03,05,09,0.00
2009,11,03,05,10,0.00
2009,11,03,05,11,0.00
2009,11,03,05,12,0.00
2009,11,03,05,13,0.00
2009,11,03,05,14,0.00
2009,11,03,05,15,0.00
2009,11,03,05,16,0.00
2009,11,03,05,17,0.00
2009,11,03,05,18,0.00
2009,11,03,05,19,0.00
2009,11,03,05,20,0.00
2009,11,03,05,21,0.00
2009,11,03,05,22,0.00
2009,11,03,05,23,0.00
2009,11,03,05,24,0.00
2009,11,03,05,25,0.00
2009,11,03,05,26,0.00
2009,11,03,05,27,0.00
2009,11,03,05,28,0.00
2009,11,03,05,29,0.00
2009,11,03,05,30,0.00
2009,11,03,05,31,0.00
2009,11,03,05,32,0.00
2009,11,03,05,33,0.00
2009,11,03,05,34,0.00
2009,11,03,05,35,0.00
2009,11,03,05,36,0.00
2009,11,03,05,37,0.00
2009,11,03,05,38,0.00
2009,11,03,05,39,0.00
2009,11,03,05,40,0.00
2009,11,03,05,41,0.00
2009,11,03,05,42,0.00
2009,11,03,05,43,0.00
2009,11,03,05,44,0.00
2009,11,03,05,45,0.00
2009,11,03,05,46,0.00
2009,11,03,05,47,0.00
2009,11,03,05,48,0.00
2009,11,03,05,49,0.00
2009,11,03,05,50,0.00
2009,11,03,05,51,0.00
2009,11,03,05,52,0.00
2009,11,03,05,53,0.00
2009,11,03,05,54,0.00
2009,11,03,05,55,0.00
2009,11,03,05,56,0.00
2009,11,03,05,57,0.00
2009,11,03,05,58,0.00
2009,11,03,05,59,0.00
2009,11,03,06,00,0.00
2009,11,03,06,01,0.00
2009,11,03,06,02,0.00
2009,11,03,06,03,0.00
2009,11,03,06,04,0.00
2009,11,03,06,05,0.00
2009,11,03,06,06,0.00
2009,11,03,06,07,0.00
2009,11,03,06,08,0.00
2009,11,03,06,09,0.00
2009,11,03,06,10,0.00
2009,11,03,06,11,0.00
2009,11,03,06,12,0.00
2009,11,03,06,13,0.00
2009,11,03,06,14,0.00
2009,11,03,06,15,0.00
2009,11,03,06,16,0.00
2009,11,03,06,17,0.00
2009,11,03,06,18,0.00
2009,11,03,06,19,0.00
2009,11,03,06,20,0.00
2009,11,03,06,21,0.00
2009,11,03,06,22,0.00
2009,11,03,06,23,0.00
2009,11,03,06,24,0.00
2009,11,03,06,25,0.00
2009,11,03,06,26,0.00
2009,11,03,06,27,0.00
2009,11,03,06,28,0.00
2009,11,03,06,29,0.00
2009,11,03,06,30,0.00
2009,11,03,06,31,0.00
2009,11,03,06,32,0.00
2009,11,03,06,33,0.00
2009,11,03,06,34,0.00
2009,11,03,06,35,0.00
2009,11,03,06,36,0.00
2009,11,03,06,37,0.00
2009,11,03,06,38,0.00
2009,11,03,06,39,0.00
2009,11,03,06,40,0.00
2009,11,03,06,41,0.00
2009,11,03,06,42,0.00
2009,11,03,06,43,0.00
2009,11,03,06,44,0.00
2009,11,03,06,45,0.00
2009,11,03,06,46,0.00
2009,11,03,06,47,0.00
2009,11,03,06,48,0.00
2009,11,03,06,49,0.00
2009,11,03,06,50,0.00
2009,11,03,06,51,0.00
2009,11,03,06,52,0.00
2009,11,03,06,53,0.00
2009,11,03,06,54,0.00
2009,11,03,06,55,0.00
2009,11,03,06,56,0.00
2009,11,03,06,57,0.00
2009,11,03,06,58,0.00
2009,11,03,06,59,0.00
2009,11,03,07,00,0.00
2009,11,03,07,01,0.00
2009,11,03,07,02,0.00
2009,11,03,07,03,0.00
2009,11,03,07,04,0.00
2009,11,03,07,05,0.00
2009,11,03,07,06,0.00
2009,11,03,07,07,0.00
2009,11,03,07,08,0.00
2009,11,03,07,09,0.00
2009,11,03,07,10,0.00
2009,11,03,07,11,0.00
2009,11,03,07,12,0.00
2009,11,03,07,13,0.00
2009,11,03,07,14,0.00
2009,11,03,07,15,0.00
2009,11,03,07,16,0.00
2009,11,03,07,17,0.00
2009,11,03,07,18,0.00
2009,11,03,07,19,0.00
2009,11,03,07,20,0.00
2009,11,03,07,21,0.00
2009,11,03,07,22,0.00
2009,11,03,07,23,0.00
2009,11,03,07,24,0.00
2009,11,03,07,25,0.00
2009,11,03,07,26,0.00
2009,11,03,07,27,0.00
2009,11,03,07,28,0.00
2009,11,03,07,29,1.80
2009,11,03,07,30,5.00
2009,11,03,07,31,5.00
2009,11,03,07,32,5.00
2009,11,03,07,33,5.00
2009,11,03,07,34,5.00
2009,11,03,07,35,5.00
2009,11,03,07,36,5.00
2009,11,03,07,37,5.00
2009,11,03,07,38,5.00
2009,11,03,07,39,5.20
2009,11,03,07,40,7.00
2009,11,03,07,41,7.00
2009,11,03,07,42,7.00
2009,11,03,07,43,7.00
2009,11,03,07,44,7.00
2009,11,03,07,45,7.20
2009,11,03,07,46,9.00
2009,11,03,07,47,9.00
2009,11,03,07,48,9.00
2009,11,03,07,49,9.00
2009,11,03,07,50,10.70
2009,11,03,07,51,11.00
2009,11,03,07,52,11.00
2009,11,03,07,53,11.00
2009,11,03,07,54,11.60
2009,11,03,07,55,12.00
2009,11,03,07,56,12.00
2009,11,03,07,57,12.00
2009,11,03,07,58,12.00
2009,11,03,07,59,12.00
2009,11,03,08,00,12.00
2009,11,03,08,01,12.00
2009,11,03,08,02,13.80
2009,11,03,08,03,14.40
2009,11,03,08,04,16.00
2009,11,03,08,05,16.90
2009,11,03,08,06,18.00
2009,11,03,08,07,18.80
2009,11,03,08,08,19.10
2009,11,03,08,09,21.00
2009,11,03,08,10,21.70
2009,11,03,08,11,24.00
2009,11,03,08,12,25.70
2009,11,03,08,13,26.00
2009,11,03,08,14,26.20
2009,11,03,08,15,30.60
2009,11,03,08,16,33.80
2009,11,03,08,17,36.10
2009,11,03,08,18,37.00
2009,11,03,08,19,37.00
2009,11,03,08,20,37.00
2009,11,03,08,21,37.00
2009,11,03,08,22,37.80
2009,11,03,08,23,39.50
2009,11,03,08,24,40.00
2009,11,03,08,25,40.00
2009,11,03,08,26,39.20
2009,11,03,08,27,40.60
2009,11,03,08,28,41.20
2009,11,03,08,29,41.10
2009,11,03,08,30,42.00
2009,11,03,08,31,42.00
2009,11,03,08,32,43.90
2009,11,03,08,33,44.00
2009,11,03,08,34,44.00
2009,11,03,08,35,45.20
2009,11,03,08,36,46.70
2009,11,03,08,37,48.70
2009,11,03,08,38,49.80
2009,11,03,08,39,54.60
2009,11,03,08,40,58.40
2009,11,03,08,41,62.00
2009,11,03,08,42,64.10
2009,11,03,08,43,68.30
2009,11,03,08,44,67.40
2009,11,03,08,45,69.00
2009,11,03,08,46,69.40
2009,11,03,08,47,71.20
2009,11,03,08,48,72.00
2009,11,03,08,49,71.90
2009,11,03,08,50,70.40
2009,11,03,08,51,72.70
2009,11,03,08,52,74.00
2009,11,03,08,53,75.30
2009,11,03,08,54,74.40
2009,11,03,08,55,72.00
2009,11,03,08,56,70.50
2009,11,03,08,57,72.00
2009,11,03,08,58,73.00
2009,11,03,08,59,75.40
2009,11,03,09,00,76.80
2009,11,03,09,01,77.40
2009,11,03,09,02,80.60
2009,11,03,09,03,78.30
2009,11,03,09,04,75.50
2009,11,03,09,05,76.00
2009,11,03,09,06,80.40
2009,11,03,09,07,81.20
2009,11,03,09,08,83.00
2009,11,03,09,09,83.00
2009,11,03,09,10,81.80
2009,11,03,09,11,79.60
2009,11,03,09,12,77.40
2009,11,03,09,13,77.30
2009,11,03,09,14,79.60
2009,11,03,09,15,81.80
2009,11,03,09,16,81.90
2009,11,03,09,17,81.00
2009,11,03,09,18,79.30
2009,11,03,09,19,76.80
2009,11,03,09,20,74.80
2009,11,03,09,21,72.00
2009,11,03,09,22,67.80
2009,11,03,09,23,62.80
2009,11,03,09,24,60.40
2009,11,03,09,25,62.00
2009,11,03,09,26,60.20
2009,11,03,09,27,55.10
2009,11,03,09,28,53.40
2009,11,03,09,29,53.00
2009,11,03,09,30,57.60
2009,11,03,09,31,56.00
2009,11,03,09,32,56.00
2009,11,03,09,33,56.00
2009,11,03,09,34,56.00
2009,11,03,09,35,57.60
2009,11,03,09,36,62.90
2009,11,03,09,37,66.00
2009,11,03,09,38,68.30
2009,11,03,09,39,68.00
2009,11,03,09,40,64.20
2009,11,03,09,41,62.00
2009,11,03,09,42,66.30
2009,11,03,09,43,64.50
2009,11,03,09,44,70.20
2009,11,03,09,45,72.00
2009,11,03,09,46,80.20
2009,11,03,09,47,91.20
2009,11,03,09,48,97.90
2009,11,03,09,49,101.00
2009,11,03,09,50,106.10
2009,11,03,09,51,110.00
2009,11,03,09,52,114.70
2009,11,03,09,53,120.20
2009,11,03,09,54,128.90
2009,11,03,09,55,136.10
2009,11,03,09,56,144.10
2009,11,03,09,57,152.10
2009,11,03,09,58,155.70
2009,11,03,09,59,156.00
2009,11,03,10,00,173.10
2009,11,03,10,01,180.80
2009,11,03,10,02,185.00
2009,11,03,10,03,183.80
2009,11,03,10,04,177.80
2009,11,03,10,05,166.10
2009,11,03,10,06,151.60
2009,11,03,10,07,146.00
2009,11,03,10,08,149.50
2009,11,03,10,09,163.10
2009,11,03,10,10,186.20
2009,11,03,10,11,172.40
2009,11,03,10,12,159.40
2009,11,03,10,13,166.40
2009,11,03,10,14,164.30
2009,11,03,10,15,161.30
2009,11,03,10,16,175.60
2009,11,03,10,17,201.60
2009,11,03,10,18,187.90
2009,11,03,10,19,176.40
2009,11,03,10,20,205.50
2009,11,03,10,21,251.10
2009,11,03,10,22,265.00
2009,11,03,10,23,266.30
2009,11,03,10,24,271.20
2009,11,03,10,25,251.00
2009,11,03,10,26,281.50
2009,11,03,10,27,303.70
2009,11,03,10,28,301.00
2009,11,03,10,29,290.60
2009,11,03,10,30,229.10
2009,11,03,10,31,212.00
2009,11,03,10,32,191.80
2009,11,03,10,33,168.80
2009,11,03,10,34,152.80
2009,11,03,10,35,138.30
2009,11,03,10,36,117.60
2009,11,03,10,37,103.70
2009,11,03,10,38,97.80
2009,11,03,10,39,100.20
2009,11,03,10,40,103.80
2009,11,03,10,41,105.10
2009,11,03,10,42,113.10
2009,11,03,10,43,123.40
2009,11,03,10,44,141.40
2009,11,03,10,45,158.50
2009,11,03,10,46,166.70
2009,11,03,10,47,171.10
2009,11,03,10,48,172.60
2009,11,03,10,49,174.00
2009,11,03,10,50,175.20
2009,11,03,10,51,178.40
2009,11,03,10,52,191.00
2009,11,03,10,53,197.60
2009,11,03,10,54,198.20
2009,11,03,10,55,194.00
2009,11,03,10,56,201.40
2009,11,03,10,57,222.80
2009,11,03,10,58,249.90
2009,11,03,10,59,256.00
2009,11,03,11,00,261.40
2009,11,03,11,01,251.50
2009,11,03,11,02,248.60
2009,11,03,11,03,282.60
2009,11,03,11,04,297.70
2009,11,03,11,05,377.80
2009,11,03,11,06,346.40
2009,11,03,11,07,316.80
2009,11,03,11,08,354.80
2009,11,03,11,09,387.00
2009,11,03,11,10,312.60
2009,11,03,11,11,355.50
2009,11,03,11,12,307.80
2009,11,03,11,13,291.20
2009,11,03,11,14,317.10
2009,11,03,11,15,266.20
2009,11,03,11,16,226.30
2009,11,03,11,17,211.00
2009,11,03,11,18,211.00
2009,11,03,11,19,196.50
2009,11,03,11,20,183.90
2009,11,03,11,21,191.50
2009,11,03,11,22,192.90
2009,11,03,11,23,192.90
2009,11,03,11,24,205.40
2009,11,03,11,25,215.60
2009,11,03,11,26,208.80
2009,11,03,11,27,192.10
2009,11,03,11,28,180.40
2009,11,03,11,29,176.20
2009,11,03,11,30,174.70
2009,11,03,11,31,176.80
2009,11,03,11,32,176.00
2009,11,03,11,33,172.30
2009,11,03,11,34,168.50
2009,11,03,11,35,169.60
2009,11,03,11,36,175.00
2009,11,03,11,37,174.70
2009,11,03,11,38,177.00
2009,11,03,11,39,183.70
2009,11,03,11,40,192.90
2009,11,03,11,41,189.20
2009,11,03,11,42,198.50
2009,11,03,11,43,207.10
2009,11,03,11,44,234.70
2009,11,03,11,45,249.90
2009,11,03,11,46,248.00
2009,11,03,11,47,242.00
2009,11,03,11,48,298.00
2009,11,03,11,49,325.10
2009,11,03,11,50,333.20
2009,11,03,11,51,348.90
2009,11,03,11,52,362.60
2009,11,03,11,53,377.70
2009,11,03,11,54,390.90
2009,11,03,11,55,387.70
2009,11,03,11,56,416.20
2009,11,03,11,57,435.60
2009,11,03,11,58,434.70
2009,11,03,11,59,419.40
2009,11,03,12,00,376.10
2009,11,03,12,01,353.80
2009,11,03,12,02,414.90
2009,11,03,12,03,422.00
2009,11,03,12,04,450.60
2009,11,03,12,05,455.10
2009,11,03,12,06,446.80
2009,11,03,12,07,438.00
2009,11,03,12,08,374.10
2009,11,03,12,09,367.00
2009,11,03,12,10,370.90
2009,11,03,12,11,380.00
2009,11,03,12,12,275.60
2009,11,03,12,13,206.00
2009,11,03,12,14,206.00
2009,11,03,12,15,206.00
2009,11,03,12,16,186.10
2009,11,03,12,17,149.00
2009,11,03,12,18,166.60
2009,11,03,12,19,174.40
2009,11,03,12,20,187.20
2009,11,03,12,21,181.20
2009,11,03,12,22,201.80
2009,11,03,12,23,236.40
2009,11,03,12,24,237.40
2009,11,03,12,25,227.40
2009,11,03,12,26,226.30
2009,11,03,12,27,237.00
2009,11,03,12,28,274.20
2009,11,03,12,29,348.90
2009,11,03,12,30,419.30
2009,11,03,12,31,464.00
2009,11,03,12,32,451.40
2009,11,03,12,33,302.00
2009,11,03,12,34,302.00
2009,11,03,12,35,271.20
2009,11,03,12,36,246.00
2009,11,03,12,37,246.00
2009,11,03,12,38,267.60
2009,11,03,12,39,389.30
2009,11,03,12,40,411.60
2009,11,03,12,41,419.20
2009,11,03,12,42,433.50
2009,11,03,12,43,426.50
2009,11,03,12,44,376.60
2009,11,03,12,45,383.50
2009,11,03,12,46,364.30
2009,11,03,12,47,375.00
2009,11,03,12,48,378.20
2009,11,03,12,49,376.60
2009,11,03,12,50,382.90
2009,11,03,12,51,391.90
2009,11,03,12,52,386.60
2009,11,03,12,53,383.80
2009,11,03,12,54,392.80
2009,11,03,12,55,402.80
2009,11,03,12,56,405.40
2009,11,03,12,57,402.30
2009,11,03,12,58,403.60
2009,11,03,12,59,384.50
2009,11,03,13,00,379.40
2009,11,03,13,01,373.40
2009,11,03,13,02,373.60
2009,11,03,13,03,370.40
2009,11,03,13,04,362.00
2009,11,03,13,05,362.60
2009,11,03,13,06,363.60
2009,11,03,13,07,348.80
2009,11,03,13,08,334.80
2009,11,03,13,09,304.20
2009,11,03,13,10,309.20
2009,11,03,13,11,296.50
2009,11,03,13,12,307.60
2009,11,03,13,13,308.70
2009,11,03,13,14,296.20
2009,11,03,13,15,255.00
2009,11,03,13,16,236.40
2009,11,03,13,17,223.40
2009,11,03,13,18,220.60
2009,11,03,13,19,192.80
2009,11,03,13,20,171.10
2009,11,03,13,21,171.40
2009,11,03,13,22,165.00
2009,11,03,13,23,158.70
2009,11,03,13,24,156.00
2009,11,03,13,25,171.20
2009,11,03,13,26,237.60
2009,11,03,13,27,219.40
2009,11,03,13,28,241.40
2009,11,03,13,29,255.00
2009,11,03,13,30,238.00
2009,11,03,13,31,214.60
2009,11,03,13,32,206.90
2009,11,03,13,33,201.10
2009,11,03,13,34,201.20
2009,11,03,13,35,210.20
2009,11,03,13,36,203.80
2009,11,03,13,37,190.60
2009,11,03,13,38,185.40
2009,11,03,13,39,188.00
2009,11,03,13,40,186.80
2009,11,03,13,41,171.30
2009,11,03,13,42,155.90
2009,11,03,13,43,143.40
2009,11,03,13,44,139.60
2009,11,03,13,45,135.50
2009,11,03,13,46,132.60
2009,11,03,13,47,128.80
2009,11,03,13,48,127.00
2009,11,03,13,49,126.00
2009,11,03,13,50,122.20
2009,11,03,13,51,123.10
2009,11,03,13,52,126.30
2009,11,03,13,53,127.00
2009,11,03,13,54,122.80
2009,11,03,13,55,122.10
2009,11,03,13,56,131.60
2009,11,03,13,57,140.90
2009,11,03,13,58,147.50
2009,11,03,13,59,150.70
2009,11,03,14,00,151.60
2009,11,03,14,01,153.20
2009,11,03,14,02,149.00
2009,11,03,14,03,150.20
2009,11,03,14,04,152.40
2009,11,03,14,05,153.10
2009,11,03,14,06,156.60
2009,11,03,14,07,166.80
2009,11,03,14,08,170.10
2009,11,03,14,09,182.30
2009,11,03,14,10,192.80
2009,11,03,14,11,176.90
2009,11,03,14,12,173.40
2009,11,03,14,13,172.80
2009,11,03,14,14,178.40
2009,11,03,14,15,187.60
2009,11,03,14,16,178.50
2009,11,03,14,17,189.90
2009,11,03,14,18,206.40
2009,11,03,14,19,212.50
2009,11,03,14,20,199.50
2009,11,03,14,21,184.20
2009,11,03,14,22,185.80
2009,11,03,14,23,191.00
2009,11,03,14,24,217.00
2009,11,03,14,25,212.90
2009,11,03,14,26,214.50
2009,11,03,14,27,231.60
2009,11,03,14,28,239.00
2009,11,03,14,29,224.10
2009,11,03,14,30,250.50
2009,11,03,14,31,274.20
2009,11,03,14,32,265.40
2009,11,03,14,33,264.70
2009,11,03,14,34,269.80
2009,11,03,14,35,276.70
2009,11,03,14,36,275.20
2009,11,03,14,37,280.60
2009,11,03,14,38,267.70
2009,11,03,14,39,297.20
2009,11,03,14,40,311.00
2009,11,03,14,41,309.20
2009,11,03,14,42,295.40
2009,11,03,14,43,278.90
2009,11,03,14,44,266.00
2009,11,03,14,45,262.50
2009,11,03,14,46,257.80
2009,11,03,14,47,247.40
2009,11,03,14,48,242.40
2009,11,03,14,49,239.00
2009,11,03,14,50,240.20
2009,11,03,14,51,241.00
2009,11,03,14,52,237.90
2009,11,03,14,53,246.80
2009,11,03,14,54,250.00
2009,11,03,14,55,241.90
2009,11,03,14,56,212.20
2009,11,03,14,57,189.20
2009,11,03,14,58,166.30
2009,11,03,14,59,168.20
2009,11,03,15,00,152.10
2009,11,03,15,01,122.00
2009,11,03,15,02,108.30
2009,11,03,15,03,105.00
2009,11,03,15,04,103.70
2009,11,03,15,05,100.00
2009,11,03,15,06,99.30
2009,11,03,15,07,97.50
2009,11,03,15,08,97.00
2009,11,03,15,09,97.00
2009,11,03,15,10,97.00
2009,11,03,15,11,96.50
2009,11,03,15,12,94.20
2009,11,03,15,13,93.00
2009,11,03,15,14,91.60
2009,11,03,15,15,91.00
2009,11,03,15,16,90.90
2009,11,03,15,17,90.00
2009,11,03,15,18,89.20
2009,11,03,15,19,88.00
2009,11,03,15,20,86.60
2009,11,03,15,21,84.30
2009,11,03,15,22,83.80
2009,11,03,15,23,82.40
2009,11,03,15,24,80.20
2009,11,03,15,25,77.80
2009,11,03,15,26,76.20
2009,11,03,15,27,74.20
2009,11,03,15,28,73.70
2009,11,03,15,29,72.00
2009,11,03,15,30,72.00
2009,11,03,15,31,72.00
2009,11,03,15,32,72.00
2009,11,03,15,33,70.10
2009,11,03,15,34,70.00
2009,11,03,15,35,68.20
2009,11,03,15,36,64.00
2009,11,03,15,37,61.10
2009,11,03,15,38,60.00
2009,11,03,15,39,56.40
2009,11,03,15,40,55.60
2009,11,03,15,41,54.00
2009,11,03,15,42,54.00
2009,11,03,15,43,54.00
2009,11,03,15,44,54.00
2009,11,03,15,45,53.10
2009,11,03,15,46,52.50
2009,11,03,15,47,51.00
2009,11,03,15,48,49.90
2009,11,03,15,49,49.00
2009,11,03,15,50,47.30
2009,11,03,15,51,46.90
2009,11,03,15,52,45.50
2009,11,03,15,53,43.20
2009,11,03,15,54,42.00
2009,11,03,15,55,42.00
2009,11,03,15,56,42.00
2009,11,03,15,57,40.10
2009,11,03,15,58,39.70
2009,11,03,15,59,39.00
2009,11,03,16,00,39.00
2009,11,03,16,01,39.00
2009,11,03,16,02,37.30
2009,11,03,16,03,37.00
2009,11,03,16,04,36.50
2009,11,03,16,05,35.00
2009,11,03,16,06,35.00
2009,11,03,16,07,35.00
2009,11,03,16,08,35.00
2009,11,03,16,09,35.00
2009,11,03,16,10,34.40
2009,11,03,16,11,33.00
2009,11,03,16,12,33.00
2009,11,03,16,13,33.00
2009,11,03,16,14,32.00
2009,11,03,16,15,29.60
2009,11,03,16,16,27.40
2009,11,03,16,17,25.50
2009,11,03,16,18,25.00
2009,11,03,16,19,23.40
2009,11,03,16,20,22.90
2009,11,03,16,21,21.00
2009,11,03,16,22,21.00
2009,11,03,16,23,21.00
2009,11,03,16,24,21.00
2009,11,03,16,25,19.40
2009,11,03,16,26,19.00
2009,11,03,16,27,18.80
2009,11,03,16,28,17.30
2009,11,03,16,29,16.00
2009,11,03,16,30,14.70
2009,11,03,16,31,12.30
2009,11,03,16,32,11.90
2009,11,03,16,33,11.00
2009,11,03,16,34,11.00
2009,11,03,16,35,9.90
2009,11,03,16,36,9.00
2009,11,03,16,37,9.00
2009,11,03,16,38,7.10
2009,11,03,16,39,7.00
2009,11,03,16,40,7.00
2009,11,03,16,41,5.90
2009,11,03,16,42,5.00
2009,11,03,16,43,5.00
2009,11,03,16,44,5.00
2009,11,03,16,45,5.00
2009,11,03,16,46,2.80
2009,11,03,16,47,0.00
2009,11,03,16,48,0.00
2009,11,03,16,49,0.00
2009,11,03,16,50,0.00
2009,11,03,16,51,0.00
2009,11,03,16,52,0.00
2009,11,03,16,53,0.00
2009,11,03,16,54,0.00
2009,11,03,16,55,0.00
2009,11,03,16,56,0.00
2009,11,03,16,57,0.00
2009,11,03,16,58,0.00
2009,11,03,16,59,0.00
2009,11,03,17,00,0.00
2009,11,03,17,01,0.00
2009,11,03,17,02,0.00
2009,11,03,17,03,0.00
2009,11,03,17,04,0.00
2009,11,03,17,05,0.00
2009,11,03,17,06,0.00
2009,11,03,17,07,0.00
2009,11,03,17,08,0.00
2009,11,03,17,09,0.00
2009,11,03,17,10,0.00
2009,11,03,17,11,0.00
2009,11,03,17,12,0.00
2009,11,03,17,13,0.00
2009,11,03,17,14,0.00
2009,11,03,17,15,0.00
2009,11,03,17,16,0.00
2009,11,03,17,17,0.00
2009,11,03,17,18,0.00
2009,11,03,17,19,0.00
2009,11,03,17,20,0.00
2009,11,03,17,21,0.00
2009,11,03,17,22,0.00
2009,11,03,17,23,0.00
2009,11,03,17,24,0.00
2009,11,03,17,25,0.00
2009,11,03,17,26,0.00
2009,11,03,17,27,0.00
2009,11,03,17,28,0.00